Location: Unspecified
(0.0000°N, 0.0000°E)
Time: 21:37:11
(UTC+00:00)

Tiros 1 - Pass Details

Date: 24 October 2021
Orbit: 630 x 664 km, 48.4° (Epoch: 04 December)

Event Time Altitude Azimuth Distance (km) Brightness Sun altitude
Rises 07:06:41 0° 224° (SW) 2,986 10.3 20.2°
Reaches altitude 10° 07:09:03 10° 227° (SW) 2,074 9.5 20.7°
Maximum altitude 07:13:48 64° 308° (NW) 730 7.5 21.9°
Drops below altitude 10° 07:18:32 10° 30° (NNE) 2,067 10.0 23.0°
Sets 07:20:54 0° 33° (NNE) 2,975 10.8 23.6°
